This demonstration page uses our WeatherBlox Daily Observations layout. Learn more.

Left ArrowRight Arrow

47.50024, -111.30081

Hourly Observations for April 17, 2016

Temp ( °F °C ) Dew Point ( °F °C ) Humidity (%) Winds ( mph kmh ) Pressure ( in mb ) Visibility ( mi km ) Precip ( " mm )
12:53 am 00:53 Clear 36 2.2 26 -3.3 67 67 Calm 30.50 1033 10 16 0.00 0.00
1:53 am 01:53 Clear 33 0.6 26 -3.3 75 75 E 5 7 30.51 1033 10 16 0.00 0.00
2:53 am 02:53 Clear 31 -0.6 25 -3.9 79 79 Calm 30.51 1033 10 16 0.00 0.00
3:53 am 03:53 Clear 29 -1.7 25 -3.9 85 85 WNW 3 6 30.49 1033 10 16 0.00 0.00
4:53 am 04:53 Clear 30 -1.1 25 -3.9 82 82 Calm 30.48 1032 10 16 0.00 0.00
5:53 am 05:53 Clear 28 -2.2 23 -5 81 81 Calm 30.51 1033 10 16 0.00 0.00
6:53 am 06:53 Sunny 24 -4.4 21 -6.1 88 88 WSW 3 6 30.53 1034 10 16 0.00 0.00
7:53 am 07:53 Sunny 34 1.1 28 -2.2 79 79 Calm 30.54 1034 10 16 0.00 0.00
8:53 am 08:53 Sunny 40 4.4 30 -1.1 68 68 Calm 30.54 1034 10 16 0.00 0.00
9:53 am 09:53 Sunny 44 6.7 30 -1.1 58 58 VRB 3 6 30.55 1034 10 16 0.00 0.00
10:53 am 10:53 Sunny 47 8.3 29 -1.7 50 50 S 3 6 30.55 1034 10 16 0.00 0.00
11:53 am 11:53 Sunny 50 10 24 -4.4 36 36 S 6 9 30.53 1034 10 16 0.00 0.00
12:53 pm 12:53 Sunny 53 11.7 23 -5 31 31 SE 8 13 30.50 1033 10 16 0.00 0.00
1:53 pm 13:53 Sunny 55 12.8 16 -8.9 21 21 ESE 8 13 30.50 1033 10 16 0.00 0.00
2:53 pm 14:53 Sunny 56 13.3 19 -7.2 24 24 VRB 6 9 30.48 1032 10 16 0.00 0.00
3:53 pm 15:53 Sunny 56 13.3 17 -8.3 22 22 Calm 30.48 1032 10 16 0.00 0.00
4:53 pm 16:53 Sunny 58 14.4 16 -8.9 19 19 VRB 3 6 30.46 1031 10 16 0.00 0.00
5:53 pm 17:53 Sunny 57 13.9 14 -10 18 18 SE 3 6 30.46 1032 10 16 0.00 0.00
6:53 pm 18:53 Sunny 57 13.9 24 -4.4 28 28 ESE 8 13 30.48 1032 10 16 0.00 0.00
7:53 pm 19:53 Sunny 51 10.6 27 -2.8 39 39 E 7 11 30.47 1032 10 16 0.00 0.00
8:53 pm 20:53 Clear 45 7.2 28 -2.2 52 52 E 9 15 30.48 1032 10 16 0.00 0.00
9:53 pm 21:53 Clear 44 6.7 26 -3.3 49 49 ESE 9 15 30.49 1032 10 16 0.00 0.00
10:53 pm 22:53 Clear 43 6.1 26 -3.3 51 51 ESE 9 15 30.49 1032 10 16 0.00 0.00
11:53 pm 23:53 Clear 41 5 26 -3.3 55 55 SE 6 9 30.49 1032 10 16 0.00 0.00

Powered by AerisWeather